Weather in Zhangiztobe

Kazakhstan     49°12′53″N   81°12′52″E
temp.,
°C
wind,
m/s
gust,
m/s
humid.,
%
clouds,
%
prec.,
mm/h
press.,
hPa
HPBL,
m
25 february, thu
thu2500:00−3s5985100 1.4 1017223
03:00−8nnw7996100 1.6 1018314
06:00−11wnw3696100 3.8 1023448
09:00−15w51276100 0.1 1028803
12:00−15wsw91468100 0.1 10311316
15:00−15sw91772100 0.0 10321936
18:00−16sw51379100 0.0 10331086
21:00−18sw51480100 0.0 10361197
26 february, fri
fri2600:00−21sw51380100 0.0 1038617
03:00−24sw598197 0.0 1040175
06:00−26sw348282 0.0 104333
09:00−25ssw35830 0.0 104497
12:00−19sw697415 0.0 1042747
15:00−17sw587362 0.0 10411027
18:00−19sw338181 0.0 104131
21:00−21ssw3384100 0.0 104232
27 february, sat
sat2700:00−25s338477 0.0 104224
03:00−26ssw338819 0.0 104123
06:00−26s338410 0.0 104123
09:00−23ssw23872 0.0 104134
12:00−15s368344 0.0 1039526
15:00−13s5783100 0.0 1038680
18:00−15sse6986100 0.1 1038191
21:00−16s51084100 0.0 1040192
28 february, sun
sun2800:00−17s5985100 0.0 1040157
03:00−17sse5985100 0.0 1039173
06:00−16sse61184100 0.0 1040212
09:00−16sse7148399 0.0 1039288
12:00−13sse8138090 0.0 1037363
15:00−11sse9157617 0.0 1035406
18:00−12sse10197450 0.0 1034388
21:00−11sse11207399 0.0 1034420
1 march, mon
mon100:00−11sse122166100 0.0 1032434
03:00−11sse122165100 0.0 1031403
06:00−11sse112067100 0.0 1031393
09:00−10sse101968100 0.0 1031406
12:00−9sse101672100 0.0 1029413
15:00−8sse91474100 0.0 1028373
18:00−8sse81574100 0.0 1027307
21:00−8sse71377100 0.0 1027286